Regional Weather Roundup
Issued by NWS Portland, ME

Current Version | Previous Version | Text Only | Print | Product List | Glossary Off
Versions: 1 2 3 4 5 6 7 8 9 10 11 12 13 14 15 16 17 18 19 20 21 22 23 24 25 26 27 28 29 30 31 32 33 34 35 36 37 38 39 40 41 42 43 44 45 46 47 48 49 50
000 ASUS41 KGYX 141310 RWRGYX WEATHER ROUNDUP FOR MAINE AND NEW HAMPSHIRE NATIONAL WEATHER SERVICE GRAY ME 800 AM EST THU DEC 14 2017 MEZ002-005-006-010-012-015-018-020-021-024-026-027-029-141400- MAINE CITY SKY/WX TMP DP RH WIND PRES REMARKS PORTLAND CLOUDY 18 9 68 SW13 29.58R WCI 5 SANFORD CLOUDY 17 10 74 SW6 29.58S BAR HARBOR CLOUDY 18 8 65 W7 29.54R WISCASSET CLOUDY 17 9 70 W3 29.58R ROCKLAND MOCLDY 18 8 65 W14 29.56R WCI 4 FRYEBURG CLOUDY 15 3 59 CALM 29.53R LEWISTONAUBURN CLOUDY 14 6 70 S5 29.55R AUGUSTA CLOUDY 15 6 67 W5 29.54R WATERVILLE CLOUDY 13 5 70 SW7 29.49R BANGOR MOCLDY 14 5 67 W7 29.52R GREENVILLE N/A 3 -3 76 VRB3 29.35R MILLINOCKET PTCLDY 9 2 73 VRB5 29.45R HOULTON PTCLDY 6 0 76 SW7 29.38R PRESQUE ISLE CLOUDY 4 -4 69 SW14 29.36R WCI -14 FRENCHVILLE CLOUDY -1 -8 72 W17G28 29.25R WCI -22 CARIBOU CLOUDY 3 -6 66 SW15 29.33R WCI -16 $$ NHZ002-005-008-009-011-012-014-141400- NEW HAMPSHIRE CITY SKY/WX TMP DP RH WIND PRES REMARKS PORTSMOUTH CLOUDY 20 10 62 W7 29.58S ROCHESTER CLOUDY 18 11 74 CALM 29.57S NASHUA CLOUDY 18 12 77 CALM 29.61S MANCHESTER CLOUDY 20 10 65 W3 29.58S CONCORD CLOUDY 19 8 62 W5 29.58S LACONIA CLOUDY 17 5 59 SW9 29.56S PLYMOUTH CLOUDY 11 4 72 CALM 29.57R BERLIN CLOUDY 5 1 83 NW3 29.49R WHITEFIELD CLOUDY 4 1 88 CALM 29.52R JAFFREY MOCLDY 15 12 88 S5 29.54R KEENE CLOUDY 16 12 84 CALM 29.59R LEBANON CLOUDY 13 8 81 N3 29.57R MT WASHINGTON PTCLDY -11 -17 77 W61 N/A WCI -49 $$ VTZ005-007-008-141400- VERMONT CITY SKY/WX TMP DP RH WIND PRES REMARKS ST JOHNSBURY N/A 2 0 91 MISG 29.55R MONTPELIER CLOUDY 6 1 80 CALM 29.56R BURLINGTON PTCLDY 8 0 69 NE7 29.64R $$ MAZ007-012-024-CTZ003-RIZ002-NYZ038-NYZ072-141400- SOUTHERN NEW ENGLAND AND NY CITY SKY/WX TMP DP RH WIND PRES REMARKS BOSTON FLURRIES 22 12 65 W10 29.61S WCI 11 WORCESTER FLURRIES 16 10 77 NW10 29.53S WCI 4 NANTUCKET FLURRIES 27 26 96 NE7 29.57F PROVIDENCE SNOW 21 19 92 N7 29.62R VSB 1/2 HARTFORD LGT SNOW 20 18 92 N6 29.61R FOG ALBANY FLURRIES 18 12 77 NW5 29.64R NEW YORK CITY LGT SNOW 27 24 89 N8 29.59R FOG $$ ANZ081-ANZ082-ANZ150-NHZ014-MEZ023>029-141400- COASTAL MARINE OBSERVATIONS STATION/POSITION TIME TEMP WIND PRES WAVE AIR SEA DIR/SP/G HT/PER (UTC) (F) (DEG/KT/KT) (MB) (FT/S) MOUNT DESERT ROC 1300 28 230/ 23/ 26 1000.4R MATINICUS ROCK 1200 27 260/ 23/ 29 999.3R ISLE OF SHOALS 1200 22 260/ 19/ 22 1002.0R JEFFREYS LEDGE 1236 48 N/A 4/ 5 GEORGES BANK BUO 1150 43 51 1003.0 14/ 9 $$ .............KEY.............. WCI - WIND CHILL TC - TEMPERATURE IN CELSIUS VSB - VISIBILITY IN MILES HX - HEAT INDEX FAIR- INDICATES FEW OR NO CLOUDS BELOW 12,000 FT, WITH NO SIGNIFICANT WEATHER AND/OR OBSTRUCTIONS TO VISIBILITY.

USA.gov is the U.S. government's official web portal to all federal, state and local government web resources and services.